{"data":{"norad_id":61774,"intl_designator":"2024-199AR","name":"SITRO-AIS 46","alt_names":[],"object_type":"PAYLOAD","status":"ACTIVE","operator":null,"country":"CIS","launch_date":"2024-11-04","launch_site_code":"VOSTO","launch_vehicle":null,"mission":null,"orbit_class":"UNKNOWN","rcs_meters":null,"size_class":null,"mass_kg":null,"dimensions":null,"purposes":[],"wikipedia_slug":null,"has_3d_model":false,"image_url":null,"decayed_at":null,"tle_current":{"epoch":"2026-05-25T03:42:48.532032Z","epoch_age_seconds":55532,"freshness":"FRESH","line1":"1 61774U 24199AR  26145.15472838  .00048113  00000+0  64240-3 0  9991","line2":"2 61774  97.2928  21.0842 0007189  34.5668 325.6054 15.57910410130886","mean_motion":15.5791041,"eccentricity":0.0007189,"inclination_deg":97.2928,"raan_deg":21.0842,"arg_perigee_deg":34.5668,"mean_anomaly_deg":325.6054,"bstar":0.0006424,"rev_number":13088,"period_min":92.431502527799,"perigee_km":388.83732255656,"apogee_km":398.57387784713,"semimajor_km":6771.8426002018,"source":"CELESTRAK","updated_at":"2026-05-25T13:38:02.560141Z"}}}